GW5240 Weather Reports


time (UTC)temp
F
wind
direction
speed
knots
gust
knots
rain 1hr
in
rain 24hr
in
rain mn
in
humidity
%
barometer
mb
20260904195906 86 148 1.7 1.7 0.00 0.00 0.00 67 1012.8
20260904195403 86 2 1.7 2.6 0.00 0.00 0.00 67 1012.9
20260904194858 86 164 1.7 1.7 0.00 0.00 0.00 67 1012.9
20260904194358 86 18 3.5 6.1 0.00 0.00 0.00 67 1012.9
20260904193853 85 350 3.5 4.3 0.00 0.00 0.00 70 1012.7
20260904193348 85 354 1.7 4.3 0.00 0.00 0.00 69 1012.8
20260904192843 85 188 0.9 1.7 0.00 0.00 0.00 69 1012.8
20260904192339 83 176 1.7 2.6 0.00 0.00 0.00 72 1012.8
20260904191835 83 350 2.6 2.6 0.00 0.00 0.00 74 1012.9
20260904191332 84 344 2.6 4.3 0.00 0.00 0.00 72 1013.1
20260904190828 84 334 3.5 6.1 0.00 0.00 0.00 72 1013.1
20260904190324 85 184 3.5 4.3 0.00 0.00 0.00 71 1013.3
20260904185820 84 23 2.6 2.6 0.00 0.00 0.00 72 1013.2
20260904185315 84 263 4.3 6.1 0.00 0.00 0.00 72 1013.1
20260904184814 83 315 2.6 2.6 0.00 0.00 0.00 73 1013.1
20260904184309 82 296 1.7 2.6 0.00 0.00 0.00 75 1012.9
20260904183805 83 335 4.3 7.8 0.00 0.00 0.00 75 1013.1
20260904183300 82 82 1.7 2.6 0.00 0.00 0.00 75 1012.9
20260904182755 82 354 3.5 4.3 0.00 0.00 0.00 75 1013.1
20260904182250 82 236 1.7 1.7 0.00 0.00 0.00 76 1012.9
20260904181746 81 335 2.6 2.6 0.00 0.00 0.00 78 1013.1
20260904181246 81 10 5.2 8.7 0.00 0.00 0.00 78 1013.2
20260904180741 81 343 1.7 2.6 0.00 0.00 0.00 78 1013.2
20260904180236 80 244 2.6 2.6 0.00 0.00 0.00 79 1012.9
20260904175735 81 2 5.2 6.1 0.00 0.00 0.00 78 1013.1
20260904175233 81 294 3.5 4.3 0.00 0.00 0.00 79 1012.8
20260904174729 81 356 3.5 4.3 0.00 0.00 0.00 78 1012.8
20260904174225 82 171 0.9 1.7 0.00 0.00 0.00 78 1012.8
20260904173720 82 32 5.2 7.8 0.00 0.00 0.00 77 1012.9
20260904173215 82 111 1.7 2.6 0.00 0.00 0.00 77 1012.9
20260904172712 84 249 3.5 6.1 0.00 0.00 0.00 75 1012.6
20260904172210 84 18 1.7 2.6 0.00 0.00 0.00 75 1012.5
20260904171706 83 359 2.6 2.6 0.00 0.00 0.00 75 1012.5
20260904171201 83 298 2.6 2.6 0.00 0.00 0.00 75 1012.4
20260904170657 83 107 0.9 1.7 0.00 0.00 0.00 77 1012.6
20260904170153 82 77 0.9 2.6 0.00 0.00 0.00 79 1012.6
20260904165651 81 113 1.7 2.6 0.00 0.00 0.00 79 1012.7
20260904165151 81 300 1.7 2.6 0.00 0.00 0.00 79 1012.7
20260904164646 82 131 2.6 4.3 0.00 0.00 0.00 77 1012.5
20260904164141 81 168 1.7 2.6 0.00 0.00 0.00 80 1012.5
20260904163637 81 33 3.5 4.3 0.00 0.00 0.00 80 1012.5
20260904163132 81 14 3.5 6.1 0.00 0.00 0.00 79 1012.3
20260904162631 81 173 2.6 2.6 0.00 0.00 0.00 81 1012.4
20260904162126 82 27 4.3 6.1 0.00 0.00 0.00 78 1012.4
20260904161622 82 339 6.1 8.7 0.00 0.00 0.00 78 1012.4
20260904161117 83 15 5.2 6.1 0.00 0.00 0.00 77 1012.1
20260904160612 83 170 0.0 1.7 0.00 0.00 0.00 79 1012.2
20260904160108 83 245 3.5 4.3 0.00 0.00 0.00 78 1012.1
20260904155608 84 35 4.3 6.1 0.00 0.00 0.00 76 1012.0
20260904155102 84 309 3.5 4.3 0.00 0.00 0.00 77 1012.1
20260904154556 84 130 0.9 1.7 0.00 0.00 0.00 77 1011.9
20260904154051 84 350 3.5 4.3 0.00 0.00 0.00 77 1011.9
20260904153550 85 38 4.3 6.1 0.00 0.00 0.00 75 1011.8
20260904153046 85 89 1.7 2.6 0.00 0.00 0.00 74 1011.6
20260904152542 85 155 1.7 2.6 0.00 0.00 0.00 75 1011.7
20260904152038 84 161 0.9 1.7 0.00 0.00 0.00 77 1011.4
20260904151538 83 164 0.0 0.0 0.00 0.00 0.00 78 1011.4
20260904151037 83 147 1.7 2.6 0.00 0.00 0.00 78 1011.5
20260904150532 83 83 0.9 1.7 0.00 0.00 0.00 78 1011.2
20260904150027 82 174 0.0 0.0 0.00 0.00 0.00 80 1011.5
20260904145526 82 349 1.7 2.6 0.00 0.00 0.00 80 1011.2
20260904145022 81 176 1.7 2.6 0.00 0.00 0.00 82 1011.2
20260904144518 80 151 0.0 0.0 0.00 0.00 0.00 84 1011.1
20260904144014 79 146 1.7 1.7 0.00 0.00 0.00 85 1011.2
20260904143509 79 338 1.7 2.6 0.00 0.00 0.00 86 1011.2
20260904143006 78 141 0.0 1.7 0.00 0.00 0.00 87 1011.3
20260904142502 78 152 0.0 0.0 0.00 0.00 0.00 87 1011.3
20260904142001 78 162 0.0 0.0 0.00 0.00 0.00 88 1011.3
20260904141456 78 122 0.9 1.7 0.00 0.00 0.00 88 1011.2
20260904140953 77 183 0.9 1.7 0.00 0.00 0.00 89 1011.1
20260904140452 77 122 0.9 1.7 0.00 0.00 0.00 89 1011.2
20260904135952 77 122 1.7 1.7 0.00 0.00 0.00 91 1011.2
20260904135452 76 140 1.7 1.7 0.00 0.00 0.00 91 1011.1
20260904134948 76 139 0.9 1.7 0.00 0.00 0.00 93 1011.3
20260904134448 76 172 0.0 0.0 0.00 0.00 0.00 94 1011.4
20260904133943 75 137 0.0 0.0 0.00 0.00 0.00 94 1011.3
20260904133437 75 152 0.0 0.0 0.00 0.00 0.00 95 1011.4
20260904132933 75 143 0.0 1.7 0.00 0.00 0.00 96 1011.3
20260904132428 74 155 0.0 1.7 0.00 0.00 0.00 97 1011.1
20260904131928 74 155 0.0 1.7 0.00 0.00 0.00 97 1011.3
20260904131423 74 140 1.7 1.7 0.00 0.00 0.00 97 1011.2
20260904130919 74 315 0.0 1.7 0.00 0.00 0.00 98 1011.1
20260904130418 73 250 0.0 1.7 0.00 0.00 0.00 98 1011.0
20260904125912 73 159 0.0 0.0 0.00 0.00 0.00 98 1011.0
20260904125410 73 161 0.0 0.0 0.00 0.00 0.00 98 1011.1
20260904124908 73 137 0.0 0.0 0.00 0.00 0.00 98 1010.9
20260904124405 73 161 0.0 0.0 0.00 0.00 0.00 98 1010.8
20260904123900 72 161 0.0 1.7 0.00 0.00 0.00 98 1010.6
20260904123355 72 161 0.0 0.0 0.00 0.00 0.00 98 1010.7
20260904122851 72 161 0.0 0.0 0.00 0.00 0.00 98 1010.6
20260904122350 72 160 0.0 0.0 0.00 0.00 0.00 98 1010.8
20260904121844 72 160 0.0 0.0 0.00 0.00 0.00 98 1010.6
20260904121341 71 160 0.0 0.0 0.00 0.00 0.00 97 1010.6
20260904120837 71 160 0.0 0.0 0.00 0.00 0.00 97 1010.5
20260904120333 71 160 0.0 0.0 0.00 0.00 0.00 97 1010.5
20260904115828 71 158 0.0 0.0 0.00 0.00 0.00 97 1010.6
20260904115323 71 168 0.0 0.0 0.00 0.00 0.00 97 1010.4
20260904114823 71 144 0.0 0.0 0.00 0.00 0.00 97 1010.4
20260904114318 71 167 0.0 0.0 0.00 0.00 0.00 97 1010.5
20260904113813 71 163 0.0 0.0 0.00 0.00 0.00 97 1010.1
20260904113312 71 167 0.0 0.0 0.00 0.00 0.00 97 1010.2
20260904112807 71 162 0.0 0.0 0.00 0.00 0.00 97 1010.1
20260904112305 72 157 0.0 0.0 0.00 0.00 0.00 97 1010.3
20260904111758 72 148 0.0 0.0 0.00 0.00 0.00 97 1010.1
20260904111254 72 171 0.0 0.0 0.00 0.00 0.00 97 1010.2
20260904110749 72 162 0.0 0.0 0.00 0.00 0.00 97 1010.3
20260904110248 72 144 1.7 1.7 0.00 0.00 0.00 97 1010.0
20260904105743 72 173 0.0 1.7 0.00 0.00 0.00 97 1010.1
20260904105238 72 154 0.0 0.0 0.00 0.00 0.00 97 1010.2
20260904104733 72 175 0.0 0.0 0.00 0.00 0.00 97 1009.9
20260904104229 72 175 0.0 0.0 0.00 0.00 0.00 97 1010.2
20260904103726 72 176 0.0 0.0 0.00 0.00 0.00 97 1010.2
20260904103220 72 169 0.0 1.7 0.00 0.00 0.00 97 1010.1
20260904102716 72 150 0.0 1.7 0.00 0.00 0.00 97 1010.1
20260904102211 72 174 0.0 0.0 0.00 0.00 0.00 97 1010.2
20260904101708 72 156 0.0 0.0 0.00 0.00 0.00 97 1010.4
20260904101203 72 161 0.0 0.0 0.00 0.00 0.00 97 1010.3
20260904100659 72 161 0.0 0.0 0.00 0.00 0.00 97 1010.0
20260904100155 72 161 0.0 0.0 0.00 0.00 0.00 97 1010.3
20260904095649 72 161 0.0 0.0 0.00 0.00 0.00 97 1010.1
20260904095148 71 161 0.0 0.0 0.00 0.00 0.00 97 1010.1
20260904094644 71 161 0.0 0.0 0.00 0.00 0.00 97 1010.0
20260904094138 71 161 0.0 0.0 0.00 0.00 0.00 96 1009.9
20260904093636 72 161 0.0 0.0 0.00 0.00 0.00 96 1010.0
20260904093135 72 161 0.0 0.0 0.00 0.00 0.00 96 1009.8
20260904092631 71 161 0.0 0.0 0.00 0.00 0.00 96 1009.9
20260904092127 72 161 0.0 0.0 0.00 0.00 0.00 96 1009.9
20260904091623 72 161 0.0 0.0 0.00 0.00 0.00 96 1009.7
20260904091123 72 161 0.0 0.0 0.00 0.00 0.00 96 1009.8
20260904090618 72 160 0.0 0.0 0.00 0.00 0.00 96 1009.6
20260904090115 72 161 0.0 0.0 0.00 0.00 0.00 96 1009.8
20260904085614 72 161 0.0 0.0 0.00 0.00 0.00 96 1009.6
20260904085114 72 161 0.0 0.0 0.00 0.00 0.00 96 1009.4
20260904084610 72 160 0.0 0.0 0.00 0.00 0.00 96 1009.5
20260904084106 72 161 0.0 0.0 0.00 0.00 0.00 96 1009.7
20260904083602 72 160 0.0 0.0 0.00 0.00 0.00 96 1009.4
20260904083057 72 161 0.0 0.0 0.00 0.00 0.00 96 1009.6
20260904082552 72 161 0.0 0.0 0.00 0.00 0.00 96 1009.5
20260904082048 73 161 0.0 0.0 0.00 0.00 0.00 95 1009.6
20260904081543 72 160 0.0 0.0 0.00 0.00 0.00 95 1009.6
20260904081038 72 161 0.0 0.0 0.00 0.00 0.00 95 1009.6
20260904080534 72 161 0.0 0.0 0.00 0.00 0.00 95 1009.6
20260904080030 73 161 0.0 0.0 0.00 0.00 0.00 95 1009.5
20260904075526 73 161 0.0 0.0 0.00 0.00 0.00 95 1009.7
20260904075020 73 161 0.0 0.0 0.00 0.00 0.00 95 1009.3
20260904074515 73 161 0.0 0.0 0.00 0.00 0.00 95 1009.4
20260904074014 73 161 0.0 0.0 0.00 0.00 0.00 95 1009.4
20260904073510 73 161 0.0 0.0 0.00 0.00 0.00 95 1009.5
20260904073006 73 161 0.0 0.0 0.00 0.00 0.00 94 1009.6
20260904072502 73 161 0.0 0.0 0.00 0.00 0.00 94 1009.6
20260904072001 73 161 0.0 0.0 0.00 0.00 0.00 94 1009.5
20260904071457 73 161 0.0 0.0 0.00 0.00 0.00 94 1009.4
20260904070952 73 161 0.0 0.0 0.00 0.00 0.00 94 1009.9
20260904070450 73 160 0.0 0.0 0.00 0.00 0.00 94 1009.7
20260904065945 73 160 0.0 0.0 0.00 0.00 0.00 93 1009.3
20260904065441 74 160 0.0 0.0 0.00 0.00 0.00 93 1009.8
20260904064936 74 161 0.0 0.0 0.00 0.00 0.00 93 1009.8
20260904064432 74 160 0.0 0.0 0.00 0.00 0.00 93 1009.8
20260904063927 74 160 0.0 0.0 0.00 0.00 0.00 93 1009.6
20260904063424 74 160 0.0 0.0 0.00 0.00 0.00 93 1009.7
20260904062918 74 160 0.0 0.0 0.00 0.00 0.00 93 1009.9
20260904062414 74 161 0.0 0.0 0.00 0.00 0.00 92 1009.8
20260904061910 74 161 0.0 0.0 0.00 0.00 0.00 92 1009.7
20260904061406 74 161 0.0 0.0 0.00 0.00 0.00 92 1009.6
20260904060902 74 160 0.0 0.0 0.00 0.00 0.00 92 1009.7
20260904060358 75 160 0.0 0.0 0.00 0.00 0.00 92 1009.6
20260904055853 74 160 0.0 0.0 0.00 0.00 0.00 92 1009.7
20260904055348 75 160 0.0 0.0 0.00 0.00 0.00 92 1009.6
20260904054844 75 160 0.0 0.0 0.00 0.00 0.00 91 1009.6
20260904054340 75 161 0.0 0.0 0.00 0.00 0.00 91 1009.7
20260904053835 75 161 0.0 0.0 0.00 0.00 0.00 91 1009.5
20260904053334 75 160 0.0 0.0 0.00 0.00 0.00 91 1009.5
20260904052830 75 160 0.0 0.0 0.00 0.00 0.00 90 1009.7
20260904052327 75 160 0.0 0.0 0.00 0.00 0.00 90 1009.4
20260904051823 75 160 0.0 0.0 0.00 0.00 0.00 90 1009.6
20260904051318 76 160 0.0 0.0 0.00 0.00 0.00 89 1009.7
20260904050813 76 160 0.0 0.0 0.00 0.00 0.00 89 1009.6
20260904050311 76 160 0.0 0.0 0.00 0.00 0.00 89 1009.5
20260904045810 76 159 0.0 0.0 0.00 0.01 0.01 88 1009.6
20260904045307 76 159 0.0 0.0 0.00 0.01 0.01 88 1009.6
20260904044759 76 165 0.0 0.0 0.00 0.01 0.01 88 1009.5
20260904044257 76 155 0.0 0.0 0.00 0.01 0.01 88 1009.5
20260904043752 76 154 0.0 0.0 0.00 0.01 0.01 88 1009.4
20260904043248 76 157 0.0 0.0 0.00 0.01 0.01 88 1009.4
20260904042743 76 157 0.0 0.0 0.00 0.01 0.01 87 1009.4
20260904042240 77 156 0.0 0.0 0.00 0.01 0.01 87 1009.2
20260904041739 77 161 0.0 0.0 0.00 0.01 0.01 86 1009.4
20260904041235 77 161 0.0 0.0 0.00 0.01 0.01 86 1009.2
20260904040731 77 165 0.0 0.0 0.00 0.01 0.01 86 1009.3
20260904040226 77 165 0.0 0.0 0.00 0.01 0.01 85 1009.2
20260904035722 77 167 0.0 1.7 0.00 0.01 0.01 85 1009.0
20260904035217 77 157 0.0 0.0 0.00 0.01 0.01 84 1009.4
20260904034716 78 160 0.0 0.0 0.00 0.01 0.01 84 1009.5
20260904034212 78 162 0.0 0.0 0.00 0.01 0.01 83 1009.4
20260904033708 78 162 0.0 0.0 0.00 0.01 0.01 83 1009.4
20260904033205 78 156 0.0 0.0 0.00 0.01 0.01 82 1009.5
20260904032701 78 161 0.0 0.0 0.00 0.01 0.01 82 1009.4
20260904032159 79 154 0.0 0.0 0.00 0.01 0.01 81 1009.4
20260904031700 79 167 0.0 0.0 0.00 0.01 0.01 81 1009.4
20260904031155 78 161 0.0 0.0 0.00 0.01 0.01 81 1009.5
20260904030651 79 162 0.0 0.0 0.00 0.01 0.01 81 1009.6
20260904030146 79 157 0.0 0.0 0.00 0.01 0.01 81 1009.5
20260904025642 79 137 0.0 1.7 0.00 0.01 0.01 81 1009.6
20260904025136 79 166 0.0 0.0 0.00 0.01 0.01 80 1009.6
20260904024632 79 149 0.0 0.0 0.00 0.01 0.01 80 1009.5
20260904024127 79 167 0.0 0.0 0.00 0.01 0.01 79 1009.5
20260904023623 79 165 0.0 0.0 0.00 0.01 0.01 79 1009.5
20260904023119 79 166 0.0 0.0 0.00 0.01 0.01 79 1009.5
20260904022614 79 173 0.9 1.7 0.00 0.01 0.01 79 1009.3
20260904022110 79 167 0.0 0.0 0.00 0.01 0.01 79 1009.4
20260904021605 80 167 0.0 0.0 0.00 0.01 0.01 78 1009.5
20260904021100 80 164 0.0 0.0 0.00 0.01 0.01 78 1009.4
20260904020555 80 164 0.0 0.0 0.00 0.01 0.01 78 1009.3
20260904020045 80 164 0.0 0.0 0.00 0.01 0.01 77 1009.5
20260904015540 80 155 0.0 0.0 0.00 0.01 0.01 76 1009.4
20260904015038 80 158 0.0 0.0 0.00 0.01 0.01 76 1009.2
20260904014532 80 166 0.0 1.7 0.00 0.01 0.01 76 1009.3
20260904014028 81 174 0.0 0.0 0.00 0.01 0.01 75 1009.3
20260904013524 81 169 0.0 0.0 0.00 0.01 0.01 75 1008.8
20260904013021 81 39 0.9 1.7 0.00 0.01 0.01 75 1009.2
20260904012520 81 167 0.0 0.0 0.00 0.01 0.01 74 1008.8
20260904012015 82 173 0.0 0.0 0.00 0.01 0.01 73 1008.8
20260904011509 82 170 0.0 0.0 0.00 0.01 0.01 73 1008.9
20260904011004 82 166 0.0 0.0 0.00 0.01 0.01 72 1008.7
20260904010501 83 164 0.0 0.0 0.00 0.01 0.01 71 1008.7
20260904010000 83 152 1.7 1.7 0.00 0.01 0.01 71 1008.6
20260904005456 83 173 0.0 0.0 0.00 0.01 0.01 71 1008.7
20260904004951 83 176 0.9 1.7 0.00 0.01 0.01 71 1008.6
20260904004447 83 163 0.0 0.0 0.00 0.01 0.01 70 1008.5
20260904003947 84 168 0.0 1.7 0.00 0.01 0.01 69 1008.7
20260904003443 84 168 0.0 1.7 0.00 0.01 0.01 69 1008.6
20260904002938 84 175 0.0 1.7 0.00 0.01 0.01 69 1008.6
20260904002435 84 113 0.0 1.7 0.00 0.01 0.01 68 1008.7
20260904001933 84 173 1.7 2.6 0.00 0.01 0.01 68 1008.9
20260904001429 84 166 0.0 0.0 0.00 0.01 0.01 68 1008.7
20260904000923 85 222 2.6 4.3 0.00 0.01 0.01 67 1008.9
20260904000425 85 171 1.7 2.6 0.00 0.01 0.01 66 1008.7
20260903235919 85 140 2.6 4.3 0.00 0.01 0.01 65 1008.8
20260903235415 85 322 1.7 2.6 0.00 0.01 0.01 65 1008.6
20260903234914 85 145 0.9 1.7 0.00 0.01 0.01 65 1008.8
20260903234410 86 173 0.9 1.7 0.00 0.01 0.01 64 1008.7
20260903233906 86 169 1.7 2.6 0.00 0.01 0.01 64 1008.7
20260903233402 86 97 0.0 1.7 0.00 0.01 0.01 64 1008.7
20260903232901 86 146 1.7 2.6 0.00 0.01 0.01 64 1008.7
20260903232356 86 169 0.9 1.7 0.00 0.01 0.01 63 1008.4
20260903231856 86 126 1.7 2.6 0.00 0.01 0.01 62 1008.4
20260903231351 86 179 0.9 1.7 0.00 0.01 0.01 62 1008.4
20260903230846 87 190 0.0 1.7 0.00 0.01 0.01 62 1008.1
20260903230341 87 192 5.2 7.8 0.00 0.01 0.01 61 1007.9
20260903225838 87 147 1.7 2.6 0.00 0.01 0.01 61 1008.0
20260903225333 87 176 0.0 1.7 0.00 0.01 0.01 60 1008.1
20260903224830 87 203 0.9 2.6 0.00 0.01 0.01 60 1008.1
20260903224325 88 84 4.3 7.8 0.00 0.01 0.01 59 1008.0
20260903223821 88 152 1.7 2.6 0.00 0.01 0.01 59 1008.0
20260903223314 88 168 1.7 1.7 0.00 0.01 0.01 59 1008.0
20260903222809 88 159 3.5 6.1 0.00 0.01 0.01 58 1008.1
20260903222308 89 198 1.7 2.6 0.00 0.01 0.01 58 1008.3
20260903221803 89 233 1.7 2.6 0.00 0.01 0.01 57 1008.2
20260903221301 88 192 3.5 4.3 0.00 0.01 0.01 58 1008.2
20260903220800 87 165 1.7 2.6 0.00 0.01 0.01 59 1008.2
20260903220254 89 79 3.5 4.3 0.00 0.01 0.01 58 1008.1
20260903215747 88 158 1.7 2.6 0.00 0.01 0.01 58 1008.4
20260903215244 88 197 3.5 4.3 0.00 0.01 0.01 58 1008.3
20260903214741 88 147 4.3 4.3 0.00 0.01 0.01 58 1008.2
20260903214239 88 174 2.6 2.6 0.00 0.01 0.01 59 1008.3
20260903213732 88 189 3.5 4.3 0.00 0.01 0.01 58 1008.2
20260903213228 88 181 3.5 4.3 0.00 0.01 0.01 58 1008.5
20260903212724 88 191 3.5 4.3 0.00 0.01 0.01 60 1008.6
20260903212220 87 182 1.7 1.7 0.00 0.01 0.01 60 1008.7
20260903211718 87 167 0.9 1.7 0.00 0.01 0.01 62 1008.6
20260903211215 85 164 1.7 2.6 0.07 0.01 0.01 65 1008.6
20260903210711 85 174 0.0 1.7 0.07 0.01 0.01 67 1008.4
20260903210207 84 159 2.6 6.1 0.00 0.00 0.00 65 1008.3
20260903205701 86 180 5.2 8.7 0.00 0.00 0.00 62 1008.2
20260903205200 86 170 2.6 6.1 0.00 0.00 0.00 59 1008.8
20260903204656 86 179 1.7 1.7 0.00 0.00 0.00 59 1009.2
20260903204152 87 180 3.5 6.1 0.00 0.00 0.00 58 1008.9
20260903203647 87 184 1.7 2.6 0.00 0.00 0.00 57 1008.9
20260903203142 88 179 1.7 1.7 0.00 0.00 0.00 56 1008.8
20260903202637 90 187 0.9 1.7 0.00 0.00 0.00 53 1009.0
20260903202133 90 69 3.5 6.1 0.00 0.00 0.00 53 1009.0
20260903201632 90 181 0.9 1.7 0.00 0.00 0.00 54 1008.8
20260903201131 90 165 1.7 2.6 0.00 0.00 0.00 54 1009.0
20260903200626 90 181 0.9 1.7 0.00 0.00 0.00 55 1009.0
20260903200121 90 195 1.7 1.7 0.00 0.00 0.00 55 1009.3